Regional Weather Roundup
Issued by NWS Newport/Morehead, NC

Current Version | Previous Version | Graphics & Text | Print | Product List | Glossary Off
Versions: 1 2 3 4 5 6 7 8 9 10 11 12 13 14 15 16 17 18 19 20 21 22 23 24 25 26 27 28 29 30 31 32 33 34 35 36 37 38 39 40 41 42 43 44 45 46 47 48 49 50

000
ASUS42 KMHX 031512
RWRMHX
WEATHER ROUNDUP FOR EASTERN NORTH CAROLINA
NATIONAL WEATHER SERVICE NEWPORT/MOREHEAD CITY NC
1100 AM EDT SUN MAY 03 2015

NOTE: "FAIR" INDICATES FEW OR NO CLOUDS BELOW 12,000 FEET
WITH NO SIGNIFICANT WEATHER AND/OR OBSTRUCTIONS TO VISIBILITY

NCZ015>017-031-032-045>047-102-103-031600-
NORTH COAST

CITY           SKY/WX    TMP DP  RH WIND       PRES   REMARKS
EDENTON        SUNNY     71  55  57 W8        30.18S
ELIZABETH CITY SUNNY     72  53  51 W10       30.17R
KITTY HAWK     SUNNY     65  56  71 W6        30.16S
MANTEO         SUNNY     68  51  54 NW13      30.18R

$$

NCZ045>047-081-094-103-104-031600-
CENTRAL COAST

CITY           SKY/WX    TMP DP  RH WIND       PRES   REMARKS
FRISCO         SUNNY     63  56  78 W6        30.18R
SWANQUARTER      N/A     72 N/A N/A W9        30.15S

$$

NCZ095-097-098-100-101-031600-
SOUTHERN COAST

CITY           SKY/WX    TMP DP  RH WIND       PRES   REMARKS
BEAUFORT       SUNNY     72  52  49 VRB5      30.20R
CEDAR ISLAND     N/A     70 N/A N/A W5        30.24R
JACKSONVILLE   SUNNY     73  40  30 VRB7      30.19S
PINEY ISLAND   SUNNY    N/A N/A N/A W9        30.19R
WILMINGTON     SUNNY     74  47  38 CALM      30.20S


$$

NCZ011>013-027>030-043-044-078>080-089-090>093-098-031600-
COASTAL PLAIN

CITY           SKY/WX    TMP DP  RH WIND       PRES   REMARKS
AHOSKIE        SUNNY     72  52  48 CALM      30.18S
CLINTON        SUNNY     73  53  49 NW6       30.21S
ELIZABETHTOWN  SUNNY     73  46  38 SE6       30.20S
GOLDSBORO      SUNNY     72  55  53 W6        30.18S
GREENVILLE     SUNNY     72  54  53 W6        30.21R
HAVELOCK       SUNNY     75  48  38 NW9       30.20S
KENANSVILLE    SUNNY     73  46  37 W5        30.22R
KINSTON        SUNNY     73  52  46 SW7       30.21R
NEW BERN       SUNNY     75  51  43 W5        30.20S
RICHLANDS      SUNNY     75  45  33 SW6       30.21R
ROCKY MOUNT    SUNNY     73  53  49 VRB7      30.20R
WASHINGTON     SUNNY     71  53  53 NW7       30.20R
WHITEVILLE     SUNNY     73  48  41 CALM      30.20S

$$

AMZ130-135-150-152-154-156-158-170-250-252-270-ANZ085-086-088-633-658-670-031600-
MARINE OBSERVATIONS

STATION/POSITION TIME  TEMP    WIND        PRES    WAVE   SWELL
                       AIR SEA DIR/SP/G            HT/PER HT/PER
                 (UTC) (F)     (DEG/KT/KT) (MB)    (FT/S) (FT/S)
CHESAPEAKE LIGHT 1400   62     280/ 11/ 11 1021.1
64 E VA BEACH    1450   56 61  230/  6/ 10 1020.8    7/10   7/10
DUCK             1418   64 53  260/  9/ 11 1020.2
2 E DUCK         1411      55                N/A     5/10   3/11
OREGON INLET     1400   65 56  270/  7/  9 1021.2
13E OREGON INLT  1500      52                N/A     6/11   3/11
HATTERAS CG      1406   63 60  280/  9/ 10 1021.4
DIAMOND BUOY     1450   59 59  300/  6/  6 1022.2    5/10   5/10
CAPE LOOKOUT     1500   69     280/  8/  9 1022.4
BEAUFORT LAB     1406   67 62   10/  4/  5 1021.4
27 SE WRIGHTSVLE 1400   65 71  350/  6/  8   N/A
5 SE WRIGHTSVLE  1408   65 66   40/  4/  6 1022.7
225 S CAPE HAT   1450   68 69   20/ 17/ 21 1021.9    8/11   7/11
41 SE CHARLESTON 1450   69 73  290/  6/  6 1022.5    3/11   3/11

$$



USA.gov is the U.S. government's official web portal to all federal, state and local government web resources and services.